Regional Weather Roundup
Issued by NWS State College, PA

Home | Current Version | Previous Version | Graphics & Text | Print | Product List | Glossary Off
Versions: 1 2 3 4 5 6 7 8 9 10 11 12 13 14 15 16 17 18 19 20 21 22 23 24 25 26 27 28 29 30 31 32 33 34 35 36 37 38 39 40 41 42 43 44 45 46 47 48 49 50

000
ASUS41 KCTP 161303
RWRCTP

REGIONAL WEATHER ROUNDUP
NATIONAL WEATHER SERVICE STATE COLLEGE PA
800 AM EST TUE JAN 16 2018

Note: "fair" indicates few or no clouds below 12,000 feet with no
significant weather and/or obstructions to visibility.

* = STATION THAT DOES NOT REPORT PRECIPITATION /E.G. RAIN...SNOW...ETC/
    THUNDER OR FOG.

PAZ002>004-007>009-013>016-020>023-029>032-161400-
WESTERN PENNSYLVANIA

CITY           SKY/WX    TMP DP  RH WIND       PRES   REMARKS
ERIE           LGT SNOW  21  18  88 W7        30.38R FOG     WCI  12
MEADVILLE      CLOUDY    19  17  92 CALM      30.32R
FRANKLIN*      FAIR      19  17  92 CALM      30.32R
NEW CASTLE     CLOUDY    20  19  96 S3        30.36S
BEAVER COUNTY  NOT AVBL
BUTLER*        LGT SNOW  23  21  92 CALM      30.35R FOG
PITTSBURGH INT LGT SNOW  25  23  92 S3        30.34R FOG
PITTSBURGH     LGT SNOW  25  22  88 CALM      30.33F FOG
INDIANA*       CLOUDY    25  25 100 SW3       30.37S FOG
LATROBE        LGT SNOW  27  27 100 S3        30.37S FOG
WASHINGTON CO* LGT SNOW  26  24  92 W5        30.38S FOG
$$

PAZ004>006-010>012-017>019-024>028-033>037-041-042-045-046-049>053-161400-
CENTRAL PENNSYLVANIA

CITY           SKY/WX    TMP DP  RH WIND       PRES   REMARKS
BRADFORD       LGT SNOW  18  16  92 S3        30.28R FOG
DUBOIS         LGT SNOW  22  19  89 SW5       30.31R VSB 1
CLEARFIELD     LGT SNOW  20  19  96 CALM      30.34R FOG
JOHNSTOWN      CLOUDY    21  20  96 CALM      30.27S FOG
ALTOONA        CLOUDY    24  18  77 CALM      30.35R
STATE COLLEGE  LGT SNOW  21  19  93 CALM      30.37S
WILLIAMSPORT   LGT SNOW  24  22  91 CALM      30.43R FOG
SELINSGROVE    LGT SNOW  26  23  88 CALM      30.45R VSB 1
FT INDIANTOWN  LGT SNOW  25  25 100 CALM      30.45S VSB 3/4
CAPITAL CITY   LGT SNOW  28  26  92 CALM      30.46R VSB 3/4
HARRISBURG     LGT SNOW  29  27  92 CALM      30.46R
YORK           CLOUDY    28  27  96 CALM      30.45R FOG
$$

PAZ038>040-043-044-047-048-054-055-060>062-067>071-161400-
EASTERN PENNSYLVANIA

CITY           SKY/WX    TMP DP  RH WIND       PRES   REMARKS
SCRANTON       LGT SNOW  24  23  96 CALM      30.40R FOG
MOUNT POCONO   LGT SNOW  19  18  95 S3        30.35R FOG
ALLENTOWN      LGT SNOW  27  22  81 E5        30.47S
QUAKERTOWN*    CLOUDY    25  25 100 CALM      30.47S
READING        LGT SNOW  28  27  96 SE7       30.45F FOG
LANCASTER      LGT SNOW  28  28 100 SE3       30.45F VSB 3/4
COATESVILLE    PTSUNNY   27  28 100 SE5       30.46S FOG
POTTSTOWN      CLOUDY    25  24  96 CALM      30.49S FOG
BLUE BELL      CLOUDY    27  25  93 CALM      30.50S
DOYLESTOWN     FLURRIES  25  22  88 CALM      30.47F
WILLOW GROVE   NOT AVBL
NORTH PHILA    CLOUDY    30  23  75 E5        30.51S
PHILADELPHIA   FLURRIES  30  25  81 NE5       30.51R
$$



USA.gov is the U.S. government's official web portal to all federal, state and local government web resources and services.